�N����,����,�~����,�C��,���x,�C��,����,���ϕ���,�ő�u�ԕ���,�ő厞����,���˗�,�I�_���x,�n�����x,�ő啗���N��,DTYPE
"17/07/18","00:10",0.0,24.7,93.7,1004.8,327.4,0.7,2.1,303.9,0.00,23.7,26.2,"00:01:04",1
"17/07/18","00:20",0.0,24.7,93.8,1004.3,340.8,0.7,1.6,317.7,0.00,23.7,26.3,"00:12:16",1
"17/07/18","00:30",0.0,24.7,93.7,1004.5,332.5,0.8,1.9,339.6,0.00,23.7,26.1,"00:27:28",1
"17/07/18","00:40",0.0,24.7,93.8,1004.5,339.2,0.7,1.7,11.0,0.00,23.7,26.2,"00:30:40",1
"17/07/18","00:50",0.0,24.7,93.8,1004.5,341.1,1.0,1.9,342.9,0.00,23.7,26.1,"00:44:32",1
"17/07/18","01:00",0.0,24.6,93.8,1004.3,277.4,0.8,1.9,314.1,0.00,23.6,26.2,"00:50:08",1
"17/07/18","01:10",0.0,24.6,93.8,1004.3,342.3,1.0,1.8,344.0,0.00,23.6,26.2,"01:07:12",1
"17/07/18","01:20",0.0,24.5,93.8,1004.1,312.7,1.0,1.7,334.8,0.00,23.5,26.0,"01:14:08",1
"17/07/18","01:30",0.0,24.5,93.8,1004.1,340.4,1.2,2.4,324.7,0.00,23.5,26.0,"01:26:24",1
"17/07/18","01:40",0.0,24.5,93.9,1004.1,343.0,1.1,2.7,336.0,0.00,23.5,26.1,"01:38:00",1
"17/07/18","01:50",0.0,24.5,93.9,1003.6,337.0,0.8,1.6,331.5,0.00,23.5,25.9,"01:47:52",1
"17/07/18","02:00",0.0,24.5,94.0,1003.8,37.3,0.5,1.0,58.8,0.00,23.5,26.0,"01:57:12",1
"17/07/18","02:10",0.0,24.5,94.0,1003.8,25.7,0.2,0.9,72.3,0.00,23.5,26.1,"02:01:12",1
"17/07/18","02:20",0.0,24.3,94.0,1003.6,300.1,0.5,1.2,350.7,0.00,23.3,26.2,"02:12:08",1
"17/07/18","02:30",0.0,24.2,94.1,1003.6,309.1,0.3,1.6,354.5,0.00,23.2,26.0,"02:28:24",1
"17/07/18","02:40",0.0,24.0,94.2,1003.6,330.1,0.3,0.8,333.8,0.00,23.0,25.8,"02:33:28",1
"17/07/18","02:50",0.0,24.0,94.4,1003.6,307.0,0.2,0.6,304.1,0.00,23.1,26.0,"02:40:48",1
"17/07/18","03:00",0.0,23.9,94.5,1003.4,282.4,0.3,0.8,348.3,0.00,23.0,25.8,"02:51:36",1
"17/07/18","03:10",0.0,23.9,94.8,1003.6,335.4,1.1,2.1,341.0,0.00,23.1,25.9,"03:05:08",1
"17/07/18","03:20",0.0,24.0,94.7,1003.4,349.2,1.1,2.7,341.3,0.00,23.1,25.6,"03:18:48",1
"17/07/18","03:30",0.0,24.0,94.7,1003.1,327.5,1.1,2.6,335.9,0.00,23.1,25.4,"03:20:16",1
"17/07/18","03:40",0.0,24.0,94.6,1003.1,328.4,1.0,2.1,346.7,0.00,23.1,25.7,"03:33:52",1
"17/07/18","03:50",0.0,23.9,94.6,1003.1,345.2,0.8,1.8,346.6,0.00,23.0,25.6,"03:41:20",1
"17/07/18","04:00",0.0,23.8,94.6,1003.4,338.6,1.1,1.6,353.7,0.00,22.9,25.6,"03:56:08",1
"17/07/18","04:10",0.0,23.8,94.7,1003.8,334.6,1.1,1.9,350.1,0.00,22.9,25.6,"04:07:20",1
"17/07/18","04:20",0.0,23.9,94.7,1003.4,339.7,1.5,2.7,338.4,0.00,23.0,25.6,"04:11:28",1
"17/07/18","04:30",0.0,23.9,94.6,1003.4,345.1,1.3,2.6,338.2,0.00,23.0,25.5,"04:21:52",1
"17/07/18","04:40",0.0,23.8,94.6,1003.8,341.4,1.0,2.1,345.5,0.00,22.9,25.6,"04:31:36",1
"17/07/18","04:50",0.0,23.7,94.7,1003.8,329.2,0.7,1.7,336.3,0.00,22.8,25.6,"04:46:40",1
"17/07/18","05:00",0.0,23.7,94.6,1003.8,20.0,0.6,1.4,16.0,0.00,22.8,25.5,"04:54:08",1
"17/07/18","05:10",0.0,23.6,94.6,1003.6,332.8,0.3,1.0,353.0,0.00,22.7,25.7,"05:03:52",1
"17/07/18","05:20",0.0,23.6,94.8,1003.8,319.6,0.7,1.2,341.9,0.00,22.8,25.4,"05:18:24",1
"17/07/18","05:30",0.0,23.5,94.9,1004.1,321.8,0.7,1.7,341.2,0.00,22.7,25.5,"05:23:28",1
"17/07/18","05:40",0.0,23.5,94.9,1003.8,319.3,0.8,1.6,342.9,0.00,22.7,25.4,"05:34:16",1
"17/07/18","05:50",0.0,23.6,94.9,1003.8,331.6,1.0,1.7,339.8,0.00,22.8,25.3,"05:40:16",1
"17/07/18","06:00",0.0,23.6,94.9,1004.1,311.7,0.8,1.8,334.1,0.00,22.8,25.3,"05:59:44",1
"17/07/18","06:10",0.0,23.8,95.0,1003.8,329.0,0.8,2.2,335.3,0.01,23.0,25.3,"06:09:44",1
"17/07/18","06:20",0.0,24.0,94.9,1004.1,342.2,1.3,2.5,352.5,0.01,23.2,25.2,"06:19:20",1
"17/07/18","06:30",0.0,24.4,94.7,1004.1,339.9,1.7,3.2,336.9,0.02,23.5,25.1,"06:29:52",1
"17/07/18","06:40",0.0,24.6,94.1,1004.1,338.9,1.7,3.6,325.7,0.03,23.6,25.3,"06:30:02",1
"17/07/18","06:50",0.0,25.1,93.5,1003.8,326.4,1.2,2.8,330.3,0.06,24.0,25.3,"06:40:08",1
"17/07/18","07:00",0.0,25.7,90.7,1003.8,320.2,0.8,1.8,343.4,0.08,24.1,25.3,"06:55:52",1
"17/07/18","07:10",0.0,26.0,88.6,1003.6,1.2,1.0,2.0,20.5,0.08,24.0,25.3,"07:08:32",1
"17/07/18","07:20",0.0,26.0,89.3,1004.5,349.7,0.8,2.5,14.3,0.07,24.1,25.3,"07:10:16",1
"17/07/18","07:30",0.0,26.7,88.3,1004.3,351.1,1.0,2.5,339.0,0.14,24.6,25.4,"07:26:08",1
"17/07/18","07:40",0.0,27.0,86.2,1004.3,341.4,0.7,1.9,352.8,0.16,24.5,25.5,"07:34:48",1
"17/07/18","07:50",0.0,27.3,85.8,1004.3,337.4,0.7,2.0,352.1,0.16,24.8,25.5,"07:41:04",1
"17/07/18","08:00",0.0,27.6,86.1,1004.3,45.4,0.7,1.8,17.2,0.17,25.1,25.5,"07:54:16",1
"17/07/18","08:10",0.0,28.4,82.6,1004.1,100.9,0.6,1.7,52.4,0.26,25.2,25.7,"08:05:52",1
"17/07/18","08:20",0.0,28.6,81.9,1003.8,43.6,0.6,1.9,0.3,0.30,25.2,25.8,"08:13:04",1
"17/07/18","08:30",0.0,28.4,82.3,1004.1,118.8,0.7,1.6,125.4,0.20,25.1,25.9,"08:26:16",1
"17/07/18","08:40",0.0,28.3,81.5,1004.1,40.2,0.6,1.4,62.1,0.18,24.9,25.7,"08:30:32",1
"17/07/18","08:50",0.0,28.5,81.5,1003.8,34.9,0.6,1.6,2.7,0.13,25.1,25.9,"08:46:40",1
"17/07/18","09:00",0.0,28.5,82.2,1003.4,13.0,0.6,1.3,30.9,0.15,25.2,26.1,"08:57:28",1
"17/07/18","09:10",0.0,28.9,79.7,1003.1,11.4,0.6,1.3,354.8,0.23,25.1,25.9,"09:02:48",1
"17/07/18","09:20",0.0,30.1,75.3,1003.6,183.5,0.2,0.9,12.7,0.30,25.3,26.2,"09:18:16",1
"17/07/18","09:30",0.0,29.9,77.6,1003.6,95.9,0.6,1.7,200.8,0.26,25.6,26.2,"09:26:48",1
"17/07/18","09:40",0.0,29.2,76.1,1003.4,11.4,0.6,1.4,352.9,0.16,24.6,26.7,"09:30:24",1
"17/07/18","09:50",0.0,28.9,77.5,1003.4,345.6,0.6,1.6,31.9,0.12,24.6,26.5,"09:46:56",1
"17/07/18","10:00",0.0,29.6,75.1,1003.1,306.7,0.5,2.5,349.1,0.22,24.8,26.5,"09:58:32",1
"17/07/18","10:10",0.0,30.7,70.6,1003.6,298.6,1.3,4.4,232.0,0.39,24.8,26.6,"10:08:24",1
"17/07/18","10:20",0.0,30.8,68.8,1004.1,299.9,1.6,4.1,323.2,0.44,24.4,26.8,"10:19:04",1
"17/07/18","10:30",0.0,30.5,71.6,1003.8,289.0,1.6,4.1,325.0,0.36,24.8,27.0,"10:22:32",1
"17/07/18","10:40",0.0,29.6,71.6,1003.4,306.9,1.5,3.5,335.9,0.19,24.0,27.1,"10:37:12",1
"17/07/18","10:50",0.0,31.3,67.9,1002.9,294.2,1.2,3.4,327.3,0.54,24.7,27.0,"10:42:32",1
"17/07/18","11:00",0.0,31.2,67.4,1003.1,275.0,1.0,3.6,195.3,0.33,24.5,27.3,"10:52:48",1
"17/07/18","11:10",0.0,31.3,65.8,1003.4,272.7,1.1,3.5,231.2,0.35,24.2,27.3,"11:02:16",1
"17/07/18","11:20",0.0,30.8,68.8,1003.1,266.0,1.0,3.1,315.9,0.26,24.4,27.6,"11:17:52",1
"17/07/18","11:30",0.0,30.7,68.0,1003.1,288.8,1.1,3.5,320.6,0.23,24.2,27.6,"11:22:16",1
"17/07/18","11:40",0.0,30.8,67.9,1002.9,284.2,1.2,2.4,1.3,0.23,24.2,27.5,"11:37:12",1
"17/07/18","11:50",0.0,31.4,66.6,1002.9,292.6,0.7,2.9,296.0,0.35,24.5,27.7,"11:44:56",1
"17/07/18","12:00",0.0,31.1,67.0,1002.9,265.3,1.3,3.5,204.5,0.30,24.3,28.1,"11:53:44",1
"17/07/18","12:10",0.0,30.4,66.2,1002.9,301.4,1.6,4.0,350.9,0.16,23.4,27.8,"12:05:36",1
"17/07/18","12:20",0.0,30.4,66.9,1002.4,282.7,1.0,2.7,326.7,0.17,23.6,27.8,"12:18:56",1
"17/07/18","12:30",0.0,30.2,68.9,1002.2,246.8,1.0,2.9,203.0,0.14,23.9,27.8,"12:27:44",1
"17/07/18","12:40",0.0,29.0,71.6,1002.4,266.6,2.0,4.8,229.3,0.16,23.4,27.9,"12:30:56",1
"17/07/18","12:50",0.0,28.3,73.9,1002.2,309.8,1.8,4.2,345.0,0.11,23.2,27.9,"12:47:44",1
"17/07/18","13:00",0.0,27.5,77.0,1001.9,321.9,2.0,3.7,330.0,0.10,23.1,27.5,"12:51:44",1
"17/07/18","13:10",0.0,27.2,76.0,1001.2,283.9,2.1,3.9,330.8,0.13,22.6,27.5,"13:07:20",1
"17/07/18","13:20",0.0,27.1,81.2,1001.7,315.4,1.6,3.4,346.0,0.19,23.6,27.7,"13:16:16",1
"17/07/18","13:30",0.0,27.7,80.4,1001.0,315.0,1.5,4.0,336.8,0.27,24.1,27.7,"13:29:36",1
"17/07/18","13:40",0.0,29.2,74.9,1000.3,317.1,1.8,4.1,343.6,0.52,24.3,27.7,"13:33:12",1
"17/07/18","13:50",0.0,29.9,71.1,1001.0,333.7,2.2,5.2,344.4,0.54,24.1,27.7,"13:45:28",1
"17/07/18","14:00",0.0,29.1,73.3,1001.5,293.9,1.6,3.2,331.3,0.25,23.9,27.5,"13:51:20",1
"17/07/18","14:10",0.0,29.3,73.5,1001.2,268.9,1.3,3.9,298.3,0.24,24.1,27.8,"14:01:20",1
"17/07/18","14:20",0.0,29.3,73.4,1001.9,282.3,0.8,3.3,315.5,0.19,24.1,27.8,"14:11:28",1
"17/07/18","14:30",0.0,29.8,70.5,1001.5,251.6,1.2,3.4,200.0,0.24,23.9,27.7,"14:29:20",1
"17/07/18","14:40",0.0,30.9,67.5,1001.9,235.8,1.1,3.7,225.5,0.44,24.2,27.7,"14:31:04",1
"17/07/18","14:50",0.0,30.6,68.0,1001.9,252.7,1.2,3.9,213.4,0.33,24.1,27.9,"14:45:12",1
"17/07/18","15:00",0.0,30.1,68.6,1001.7,324.5,1.5,4.1,346.9,0.22,23.7,28.0,"14:51:12",1
"17/07/18","15:10",0.0,31.0,66.9,1001.7,301.4,1.2,2.7,343.4,0.37,24.2,28.0,"15:00:24",1
"17/07/18","15:20",0.0,29.9,69.5,1001.9,305.4,0.8,2.2,350.7,0.11,23.8,28.2,"15:12:16",1
"17/07/18","15:30",0.0,31.5,65.8,1001.2,269.2,0.7,2.1,251.9,0.35,24.4,28.0,"15:24:32",1
"17/07/18","15:40",0.0,31.6,63.8,1001.7,332.5,0.7,2.0,351.6,0.36,23.9,28.1,"15:35:44",1
"17/07/18","15:50",0.0,30.6,66.8,1001.5,16.3,0.8,1.8,349.1,0.08,23.8,28.3,"15:49:04",1
"17/07/18","16:00",0.0,28.6,72.6,1000.5,279.7,1.6,3.2,272.9,0.04,23.2,28.2,"15:55:52",1
"17/07/18","16:10",0.0,27.2,80.7,999.8,267.7,1.0,2.9,279.4,0.07,23.6,28.2,"16:02:24",1
"17/07/18","16:20",0.0,27.1,83.5,1000.3,296.1,0.6,1.4,326.1,0.08,24.1,28.0,"16:14:32",1
"17/07/18","16:30",0.0,27.2,84.6,1000.3,255.7,0.5,1.4,247.5,0.07,24.4,28.4,"16:26:40",1
"17/07/18","16:40",0.0,27.1,84.8,1000.8,310.2,0.6,1.4,345.6,0.06,24.4,28.2,"16:37:12",1
"17/07/18","16:50",0.0,27.2,84.9,1000.8,304.5,1.0,2.7,336.3,0.05,24.5,27.9,"16:44:40",1
"17/07/18","17:00",0.0,27.2,84.3,1000.3,286.1,1.3,2.4,247.7,0.08,24.4,28.0,"16:54:16",1
"17/07/18","17:10",0.0,26.9,82.5,1000.8,274.8,1.3,2.9,253.3,0.10,23.7,28.0,"17:02:24",1
"17/07/18","17:20",0.0,26.8,82.0,1001.0,303.2,1.1,2.2,327.3,0.03,23.5,27.8,"17:13:52",1
"17/07/18","17:30",0.0,26.8,83.3,1000.8,345.3,1.3,3.4,353.1,0.04,23.8,27.9,"17:21:28",1
"17/07/18","17:40",0.0,27.1,82.9,1001.0,356.1,0.8,2.1,64.7,0.04,24.0,27.7,"17:38:32",1
"17/07/18","17:50",0.0,26.8,82.5,1001.5,120.1,0.8,2.5,181.9,0.01,23.6,27.6,"17:46:08",1
"17/07/18","18:00",0.0,26.6,83.6,1001.5,180.4,0.5,1.3,125.3,0.01,23.6,27.6,"17:57:12",1
"17/07/18","18:10",0.0,26.4,85.6,1001.7,242.9,0.8,2.5,233.3,0.00,23.8,27.3,"18:07:44",1
"17/07/18","18:20",0.0,25.9,87.0,1001.5,292.6,1.3,2.7,338.9,0.01,23.6,27.3,"18:17:36",1
"17/07/18","18:30",0.0,25.9,88.0,1001.2,298.1,1.0,2.0,340.4,0.02,23.8,27.3,"18:20:16",1
"17/07/18","18:40",0.0,25.8,88.0,1001.2,266.2,1.0,2.2,234.5,0.02,23.7,27.5,"18:38:48",1
"17/07/18","18:50",0.0,25.6,88.7,1001.5,258.7,0.7,1.6,240.2,0.00,23.6,27.6,"18:46:08",1
"17/07/18","19:00",0.0,25.5,89.1,1001.9,268.4,0.7,1.2,287.5,0.00,23.6,27.4,"18:53:52",1
"17/07/18","19:10",0.0,25.4,89.5,1001.9,276.6,0.6,1.1,253.4,0.00,23.6,27.3,"19:00:16",1
"17/07/18","19:20",0.0,25.3,89.9,1001.9,260.9,0.5,1.3,303.2,0.00,23.6,27.2,"19:13:36",1
"17/07/18","19:30",0.0,25.0,90.1,1001.9,257.0,1.0,2.0,229.4,0.00,23.3,27.2,"19:24:16",1
"17/07/18","19:40",0.0,24.8,90.6,1001.7,303.7,0.8,1.3,311.9,0.00,23.2,27.0,"19:30:40",1
"17/07/18","19:50",0.0,24.8,91.6,1002.4,272.9,0.7,1.1,329.5,0.00,23.4,27.2,"19:42:40",1
"17/07/18","20:00",0.0,24.8,91.9,1002.2,309.7,0.8,1.7,340.0,0.00,23.4,26.8,"19:57:12",1
"17/07/18","20:10",0.0,24.8,92.1,1002.4,323.5,0.7,1.4,337.0,0.00,23.5,26.8,"20:00:56",1
"17/07/18","20:20",0.0,24.6,92.2,1002.2,278.8,0.7,1.4,312.4,0.00,23.3,26.8,"20:15:12",1
"17/07/18","20:30",0.0,24.5,92.5,1002.4,308.4,0.8,2.1,325.3,0.00,23.2,26.7,"20:23:36",1
"17/07/18","20:40",0.0,24.4,92.7,1002.6,270.3,0.7,1.3,274.7,0.00,23.2,26.6,"20:32:16",1
"17/07/18","20:50",0.0,24.4,92.8,1002.4,289.0,0.6,1.4,235.3,0.00,23.2,26.4,"20:43:20",1
"17/07/18","21:00",0.0,24.3,92.9,1002.6,283.5,0.7,1.1,280.6,0.00,23.1,26.6,"20:54:16",1
"17/07/18","21:10",0.0,24.3,93.2,1003.1,292.0,0.7,1.0,322.0,0.00,23.2,26.4,"21:02:16",1
"17/07/18","21:20",0.0,24.3,93.3,1002.9,287.0,0.6,1.1,314.7,0.00,23.2,26.4,"21:17:04",1
"17/07/18","21:30",0.0,24.4,93.4,1003.1,268.6,0.7,1.2,275.3,0.00,23.3,26.4,"21:21:52",1
"17/07/18","21:40",0.0,24.4,93.3,1003.1,273.9,0.7,1.4,268.7,0.00,23.3,26.4,"21:35:36",1
"17/07/18","21:50",0.0,24.4,93.4,1003.1,299.6,0.7,1.3,319.4,0.00,23.3,26.4,"21:42:48",1
"17/07/18","22:00",0.0,24.4,93.4,1002.6,298.2,0.7,1.6,312.4,0.00,23.3,26.3,"21:54:08",1
"17/07/18","22:10",0.0,24.4,93.4,1002.9,281.3,0.5,0.8,332.0,0.00,23.3,26.3,"22:02:08",1
"17/07/18","22:20",0.0,24.4,93.4,1003.1,274.9,0.6,1.0,260.7,0.00,23.3,26.2,"22:18:56",1
"17/07/18","22:30",0.0,24.4,93.3,1002.9,284.0,0.8,1.3,277.1,0.00,23.3,26.3,"22:27:36",1
"17/07/18","22:40",0.0,24.4,93.3,1002.9,276.0,0.8,1.3,256.0,0.00,23.3,26.2,"22:33:12",1
"17/07/18","22:50",0.0,24.4,93.3,1002.6,276.6,0.8,1.7,327.4,0.00,23.3,26.1,"22:41:44",1
"17/07/18","23:00",0.0,24.4,93.3,1002.9,323.4,1.1,2.0,341.1,0.00,23.3,26.1,"22:52:56",1
"17/07/18","23:10",0.0,24.3,93.3,1002.2,304.1,0.8,1.4,328.2,0.00,23.2,26.2,"23:06:00",1
"17/07/18","23:20",0.0,24.1,93.4,1002.6,270.8,0.6,1.0,303.5,0.00,23.0,26.0,"23:19:36",1
"17/07/18","23:30",0.0,24.1,93.5,1002.2,313.9,1.0,1.7,328.6,0.00,23.0,25.9,"23:25:12",1
"17/07/18","23:40",0.0,24.0,93.8,1002.6,266.5,0.7,1.2,238.9,0.00,23.0,26.1,"23:38:32",1
"17/07/18","23:50",0.0,24.1,93.9,1002.4,267.5,0.7,1.2,265.6,0.00,23.1,25.9,"23:40:40",1
"17/07/18","24:00",0.0,24.1,93.8,1002.2,317.2,1.0,1.8,335.9,0.00,23.1,25.8,"23:53:52",1
